Flag for U.S.A. Weather past 2 weeks in Corvallis, Oregon, U.S.A.

Now
90 °F

Sunny.


Feels Like: 88 °F
Forecast: 60 / 93 °F
Wind: 3 mph from Southwest

Location: Corvallis Municipal

Current Time: Jul 28, 2014 at 2:39:32 PM

Latest Report: Jul 28, 2014 at 1:55 PM


Visibility: N/A

Pressure: 30.05 "Hg

Humidity: 31%

Dew point: 55 °F

Location of CorvallisLocation

Historic Weather in Corvallis — Graph

°F

Corvallis temperature yesterday

Maximum temperature yesterday: 90 °F (at 4:55 PM)
Minimum temperature yesterday: 54 °F (at 5:15 AM)
Average temperature yesterday: 72 °F

Past Weeks' High & Low Weather Summary

 TemperatureHumidityPressure
High97 °F (Jul 15, 3:35 PM)100% (Jul 23, 11:55 AM)30.30 "Hg (Jul 23, 11:55 AM)
Low52 °F (Jul 18, 5:55 AM)25% (Jul 26, 4:35 PM)29.91 "Hg (Jul 15, 5:55 PM)
Average69 °F64%30.07 "Hg
* Reported Jul 13 1:15 PM — Jul 28 1:35 PM, Corvallis, Weather by CustomWeather, © 2014

Note: Actual official high and low records may vary slightly from our data, if they occured in-between our weather recording intervals... More about our weather records

Advertising

Corvallis weather history for previous 24 hours

 ConditionsComfort  
Time TempWeatherWind HumidityBarometerVisibility
1:35 PM
Jul 28
90 °FSunny.3 mph31%30.05 "HgN/A
1:15 PM88 °FSunny.No wind35%30.06 "HgN/A
12:55 PM88 °FSunny.3 mph33%30.07 "HgN/A
12:35 PM86 °FSunny.3 mph35%30.07 "Hg10 mi
12:15 PM84 °FSunny.No wind37%30.08 "Hg10 mi
11:55 AM82 °FSunny.5 mph40%30.08 "Hg10 mi
11:35 AM82 °FSunny.6 mph40%30.09 "Hg10 mi
11:15 AM82 °FSunny.8 mph40%30.09 "Hg10 mi
10:55 AM81 °FSunny.6 mph42%30.09 "Hg10 mi
10:35 AM79 °FSunny.5 mph45%30.10 "Hg10 mi
10:15 AM77 °FSunny.5 mph47%30.10 "Hg10 mi
9:55 AM75 °FSunny.7 mph50%30.10 "Hg10 mi
9:35 AM75 °FSunny.7 mph50%30.10 "Hg10 mi
9:15 AM73 °FSunny.7 mph57%30.10 "Hg10 mi
8:55 AM72 °FSunny.5 mph61%30.10 "Hg10 mi
8:35 AM70 °FSunny.3 mph64%30.10 "Hg10 mi
8:15 AM68 °FSunny.No wind69%30.10 "Hg10 mi
7:55 AM64 °FSunny.No wind78%30.10 "Hg10 mi
7:35 AM64 °FSunny.No wind73%30.10 "Hg10 mi
7:15 AM61 °FSunny.No wind83%30.09 "Hg10 mi
6:55 AM61 °FSunny.5 mph83%30.09 "Hg10 mi
6:35 AM57 °FClear.5 mph94%30.09 "Hg10 mi
6:15 AM57 °FClear.No wind88%30.08 "Hg10 mi
5:55 AM57 °FClear.5 mph88%30.08 "Hg10 mi
5:35 AM57 °FClear.3 mph88%30.08 "Hg10 mi
5:15 AM59 °FClear.3 mph88%30.07 "Hg10 mi
4:55 AM59 °FClear.5 mph82%30.07 "Hg10 mi
4:35 AM57 °FClear.5 mph88%30.07 "Hg10 mi
3:55 AM61 °FClear.No wind83%30.07 "Hg10 mi
3:35 AM61 °FClear.7 mph83%30.06 "Hg10 mi
3:15 AM63 °FClear.8 mph77%30.06 "Hg10 mi
2:55 AM63 °FClear.7 mph77%30.06 "Hg10 mi
2:35 AM63 °FClear.8 mph77%30.06 "Hg10 mi
2:15 AM63 °FClear.8 mph77%30.06 "Hg10 mi
1:55 AM63 °FClear.9 mph77%30.06 "Hg10 mi
1:35 AM64 °FClear.9 mph73%30.05 "Hg10 mi
1:15 AM64 °FClear.9 mph73%30.05 "Hg10 mi
12:55 AM64 °FClear.10 mph78%30.05 "Hg10 mi
12:35 AM66 °FClear.10 mph73%30.05 "Hg10 mi
11:55 PM
Jul 27
66 °FClear.10 mph73%30.05 "Hg10 mi
11:35 PM66 °FClear.15 mph73%30.04 "Hg10 mi
11:15 PM68 °FClear.10 mph69%30.05 "Hg10 mi
10:55 PM70 °FClear.10 mph64%30.05 "Hg10 mi
10:35 PM70 °FClear.12 mph64%30.05 "Hg10 mi
10:15 PM72 °FClear.10 mph61%30.05 "Hg10 mi
9:55 PM72 °FClear.10 mph61%30.04 "Hg10 mi
9:35 PM73 °FSunny.12 mph57%30.03 "Hg10 mi
9:15 PM75 °FSunny.10 mph54%30.03 "Hg10 mi
8:55 PM77 °FSunny.10 mph51%30.03 "Hg10 mi
8:35 PM79 °FSunny.12 mph48%30.03 "Hg10 mi
8:15 PM81 °FSunny.12 mph45%30.02 "Hg10 mi
7:35 PM84 °FSunny.10 mph43%30.02 "Hg10 mi
7:15 PM88 °FSunny.7 mph31%30.02 "Hg10 mi
6:55 PM90 °FSunny.6 mph29%30.02 "Hg9 mi
6:35 PM90 °FSunny.7 mph29%30.02 "Hg10 mi
6:15 PM90 °FSunny.5 mph29%30.02 "HgN/A
5:55 PM90 °FSunny.5 mph31%30.03 "HgN/A
5:35 PM90 °FSunny.No wind31%30.03 "Hg3 mi
5:15 PM90 °FSunny.7 mph33%30.04 "Hg5 mi
4:55 PM90 °FSunny.6 mph33%30.04 "Hg5 mi
4:35 PM88 °FSunny.8 mph35%30.04 "Hg7 mi
4:15 PM88 °FSunny.8 mph35%30.05 "Hg8 mi
3:55 PM86 °FSunny.8 mph38%30.05 "Hg9 mi
3:35 PM84 °FSunny.8 mph40%30.05 "Hg8 mi
3:15 PM84 °FSunny.7 mph40%30.05 "Hg10 mi
2:55 PM84 °FSunny.7 mph40%30.06 "Hg10 mi
2:35 PM84 °FSunny.5 mph40%30.07 "Hg10 mi
2:15 PM84 °FSunny.5 mph40%30.07 "Hg10 mi
Weather by CustomWeather, © 2014

See weather overviewHow to use our weather pages